Vorticity
7 8 10 11 11 12 15 18 25 23 18 14 18 12 10 12 7 8 9 9 10 8 9 14 18 9 13
7 7 8 10 11 12 12 14 17 17 20 20 26 22 11 9 13 9 9 11 9 9 8 11 9 9 6
4 11 9 11 13 11 12 17 14 14 16 17 24 35 22 12 8 10 8 12 14 10 8 8 10 11 9
11 15 15 16 10 10 14 14 16 14 11 15 17 19 23 24 14 12 8 7 9 12 12 11 8 9 11
6 2 2 6 6 11 7 10 9 9 14 14 15 13 12 31 23 12 8 4 4 7 9 12 10 9 9
15 8 9 7 8 11 15 6 11 9 10 15 17 13 7 30 16 20 17 9 6 8 10 7 11 12 10
14 10 8 11 10 14 11 13 6 11 11 14 10 14 20 3 15 23 20 19 15 8 9 10 6 9 13
9 11 19 11 11 15 14 13 7 8 11 15 9 12 9 15 26 23 17 16 16 19 13 12 11 6 7
10 9 21 10 8 7 11 12 11 8 11 14 10 16 10 12 12 13 23 23 21 15 14 14 16 12 6
9 16 18 14 13 10 12 11 12 9 10 12 15 10 12 9 21 14 11 9 22 22 19 15 15 17 13
9 8 12 12 11 14 16 16 15 12 9 8 9 8 12 8 13 15 17 12 16 19 21 23 20 20 20
16 11 10 12 13 12 15 13 10 14 16 8 5 8 11 13 12 11 12 13 14 12 21 31 24 26 24
21 15 12 10 16 10 15 11 17 1 16 8 9 9 6 9 11 10 11 7 8 13 9 24 10 26 25
7 15 18 13 12 10 14 17 9 15 11 7 21 10 2 1 5 4 4 9 3 5 10 13 21 17 -5
15 19 10 12 11 7 11 14 12 12 12 13 9 8 16 19 12 6 4 5 7 7 6 2 20 24 13
18 19 20 8 5 10 10 11 11 10 9 9 8 9 9 9 11 11 10 8 9 10 7 7 1 21 23
-0 12 16 16 13 10 10 10 12 13 11 10 9 9 10 12 11 16 16 12 9 8 7 4 9 11 9
Height
2973 2971 2967 2965 2963 2962 2962 2966 2963 2962 2961 2968 2971 2975 2979 2983 2985 2988 2992 2996 3000 3003 3005 3008 3012 3019 3024
2966 2962 2957 2955 2953 2950 2950 2951 2952 2951 2949 2948 2954 2958 2963 2968 2972 2975 2978 2982 2986 2990 2994 2998 3001 3006 3012
2948 2952 2946 2945 2943 2942 2940 2939 2939 2940 2938 2937 2938 2942 2946 2951 2957 2962 2965 2969 2972 2976 2981 2986 2990 2995 3000
2938 2937 2936 2936 2934 2932 2930 2930 2928 2930 2928 2927 2927 2929 2932 2938 2944 2948 2952 2956 2960 2964 2968 2974 2979 2984 2989
2927 2926 2925 2926 2925 2924 2922 2921 2919 2920 2919 2918 2918 2917 2919 2923 2927 2932 2937 2942 2947 2951 2955 2961 2967 2972 2977
2917 2915 2915 2916 2915 2915 2914 2912 2910 2914 2910 2909 2910 2908 2909 2911 2913 2917 2922 2928 2934 2939 2944 2949 2955 2960 2965
2905 2904 2905 2906 2906 2904 2904 2903 2902 2903 2902 2900 2903 2902 2903 2904 2904 2906 2909 2914 2919 2925 2931 2937 2943 2948 2953
2896 2896 2895 2897 2896 2895 2894 2893 2893 2894 2895 2892 2895 2893 2894 2895 2897 2897 2898 2901 2906 2911 2917 2923 2929 2935 2940
2886 2886 2885 2886 2887 2886 2885 2885 2883 2885 2887 2885 2886 2886 2886 2887 2889 2889 2890 2892 2895 2898 2903 2908 2915 2921 2927
2876 2876 2876 2875 2877 2877 2876 2875 2875 2876 2879 2879 2879 2879 2879 2880 2881 2882 2883 2884 2885 2888 2891 2896 2901 2907 2914
2866 2866 2867 2867 2867 2868 2868 2867 2867 2867 2872 2871 2872 2872 2873 2872 2875 2876 2877 2878 2879 2880 2882 2885 2890 2895 2901
2857 2856 2857 2857 2858 2859 2859 2859 2859 2860 2864 2864 2864 2865 2866 2867 2867 2871 2872 2872 2873 2874 2875 2878 2883 2884 2888
2849 2848 2848 2849 2850 2850 2851 2851 2851 2853 2855 2856 2857 2858 2860 2861 2861 2864 2866 2867 2868 2868 2870 2871 2873 2876 2880
2841 2841 2840 2841 2841 2843 2843 2844 2843 2845 2847 2848 2850 2851 2852 2854 2854 2856 2859 2859 2862 2863 2863 2865 2866 2868 2872
2833 2832 2832 2833 2834 2835 2836 2836 2835 2837 2839 2841 2842 2844 2844 2845 2847 2849 2850 2853 2854 2856 2857 2858 2860 2862 2864
2826 2825 2825 2826 2826 2827 2828 2828 2829 2830 2831 2833 2834 2836 2836 2837 2839 2840 2842 2843 2846 2847 2849 2850 2853 2855 2857
2819 2818 2818 2818 2818 2819 2819 2820 2821 2822 2823 2825 2826 2826 2827 2828 2831 2832 2832 2834 2836 2838 2840 2842 2845 2848 2849